Regional Weather Roundup
Issued by NWS New Orleans/Baton Rouge, LA

Home | Current Version | Previous Version | Graphics & Text | Print | Product List | Glossary On
Versions: 1 2 3 4 5 6 7 8 9 10 11 12 13 14 15 16 17 18 19 20 21 22 23 24 25 26 27 28 29 30 31 32 33 34 35 36 37 38 39 40 41 42 43 44 45 46 47 48 49 50
851
ASUS44 KLIX 270910
RWRLIX
NEW ORLEANS REGIONAL WEATHER ROUNDUP
NATIONAL WEATHER SERVICE NEW ORLEANS LA
400 AM CDT WED AUG 27 2014

NOTE: "FAIR" INDICATES FEW OR NO CLOUDS BELOW 12,000 FEET WITH NO
      SIGNIFICANT WEATHER AND/OR OBSTRUCTIONS TO VISIBILITY.
      SKY/WX - SKY CONDITION AND SIGNIFICANT WEATHER.
      TMP - AIR TEMPERATURE.     DP    - DEWPOINT TEMPERATURE.
      RH  - RELATIVE HUMIDITY.   PRES  - PRESSURE.
      HI  - HEAT INDEX.          WCI   - WIND CHILL INDEX.

*  THESE STATIONS ARE NOT NWS OR FAA STATIONS AND ARE NOT UNDER
   NWS QUALITY CONTROL.

LAZ038-040-048-061>063-065>067-069-271000-
SOUTHEAST LOUISIANA

CITY           SKY/WX    TMP DP  RH WIND       PRES   REMARKS
N.O. AUDUBON     N/A     79  75  90 MISG        N/A
N.O. INTL ARPT PTCLDY    81  74  79 E3        29.96S
N.O. LAKEFRONT PTCLDY    83  75  77 E8        29.97S
N.O. DOWNTOWN*   N/A     81  72  74 NE6       29.97S
SLIDELL        PTCLDY    74  71  91 N5        29.97S
BATON ROUGE    CLEAR     74  71  91 CALM      29.98S
BOOTHVILLE     CLEAR     81  76  84 E5        29.95F
BELLE CHASSE   PTCLDY    79  73  82 NE5       29.96S
BOGALUSA*        N/A     72  68  86 CALM      30.00S
GALLIANO*      NOT AVBL
NEW ROADS*       N/A     72  70  92 CALM      29.98F
GONZALES*        N/A     74  74 100 CALM      29.96F
HAMMOND*       CLEAR     73  70  88 CALM      30.00S
HOUMA*         CLEAR     75  72  89 N3        29.95F
PORT FOURCHON* MOSUNNY   84  73  70 E10G16    29.95F

$$

MSZ070-080>082-271000-
SOUTHERN MISSISSIPPI

CITY           SKY/WX    TMP DP  RH WIND       PRES   REMARKS
MCCOMB         CLEAR     73  65  75 N3        30.00F
GULFPORT       CLEAR     76  73  91 N5        29.97S
BILOXI         MOCLDY    76  73  89 NE8       29.97F
PASCAGOULA     PTCLDY    73  71  93 CALM      29.98S

$$

COASTAL OBSERVATIONS
LAKE AND NEARSHORE STATIONS

STATION/POSITION TIME  TEMP    WIND        PRES    WAVE
                       AIR SEA DIR/SP/G            HT/PER
                 (UTC) (F)     (DEG/KT/KT) (MB)    (FT/S)
PASCAGOULA       0900   78      10/  6/  7 1014.5
WAVELAND YACHT   0900   79      60/ 10/ 11 1014.2
GRAND ISLE       0900   83 85  110/  7/ 12 1014.7
SOUTHWEST PASS   0900   84 87  100/ 16/ 18 1014.2
NEW CANAL        0900   82 84   80/  3/  5 1015.1
SHELL BEACH      0900   83 81   80/  8/  9 1014.4

OFFSHORE STATIONS

STATION/POSITION TIME  TEMP    WIND        PRES    WAVE
                       AIR SEA DIR/SP/G            HT/PER
                 (UTC) (F)     (DEG/KT/KT) (MB)    (FT/S)
64 S DAUPHIN ISL 0803   85 86   90/ 16/ 17 1014.2

$$




USA.gov is the U.S. government's official web portal to all federal, state and local government web resources and services.